Location: Prairie Dale
(45.6972°N, 104.5033°W)
Time: 16:06:03
(UTC+00:00)

ESTCUBE 1 - Pass Details

Date: 05 July 2022
Orbit: 646 x 657 km, 97.9° (Epoch: 07 August)

Event Time Altitude Azimuth Distance (km) Brightness Sun altitude
Exits shadow 05:28:15 28° 200° (SSW) 1,218 ? -18.2°
Maximum altitude 05:30:18 49° 260° (W) 834 ? -18.4°
Drops below altitude 10° 05:34:41 10° 336° (NNW) 2,061 ? -18.7°
Sets 05:36:58 0° 342° (NNW) 2,978 ? -18.8°
